Location: Newark
(45.6000°N, 12.8833°E)
Time: 17:37:55
(UTC+00:00)

Envisat - Pass Details

Date: 25 October 2019
Orbit: 764 x 766 km, 98.1° (Epoch: 20 November)

Event Time Altitude Azimuth Distance (km) Brightness Sun altitude
Rises 04:47:44 0° 30° (NNE) 3,242 6.6 -9.4°
Reaches altitude 10° 04:50:58 10° 51° (NE) 2,309 6.1 -8.8°
Maximum altitude 04:54:04 16° 89° (E) 1,908 6.4 -8.3°
Drops below altitude 10° 04:57:11 10° 127° (SE) 2,298 6.6 -7.8°
Sets 05:00:21 0° 149° (SSE) 3,218 6.9 -7.2°
